Theta_e
303 306 306 306 308 309 309 309 309 311 311 308 310 312 308 311 311 308 310 318 314 314 316 317 317 315 315 315 320 324 321 324 324 321 322 319 322 321 322 324 326 325 325 323 329
301 304 306 306 307 309 310 309 308 309 313 311 309 308 307 307 314 311 311 314 320 314 314 313 315 314 315 315 317 317 317 322 321 321 324 320 322 323 325 326 327 328 327 324 329
301 301 304 306 306 308 309 310 309 309 312 313 311 309 308 308 307 310 308 310 314 313 311 309 310 312 317 315 317 317 315 316 322 324 324 323 322 324 325 325 325 326 326 324 330
298 301 301 303 305 307 307 309 310 308 310 314 315 311 310 310 305 308 307 307 309 309 309 307 307 314 317 314 315 317 316 317 321 322 322 320 322 323 325 325 326 326 326 321 328
300 298 301 301 304 306 307 307 309 310 309 310 315 311 311 306 306 303 308 309 308 306 306 305 306 314 317 316 315 315 316 318 320 320 322 323 322 322 324 325 327 326 326 322 324
301 300 299 301 301 304 305 306 308 309 311 309 312 311 309 304 306 304 303 307 309 307 306 305 307 314 317 318 315 315 317 317 319 319 320 322 322 323 324 325 327 327 326 324 323
299 300 300 300 301 302 304 305 307 309 311 311 309 311 308 308 306 303 303 303 307 310 309 306 312 317 317 318 318 317 317 316 317 318 318 318 317 322 323 325 327 328 328 327 326
298 299 299 300 300 301 302 304 306 308 309 311 311 310 308 308 308 307 304 303 305 311 313 314 316 319 319 318 317 316 314 317 315 317 317 313 314 311 321 323 326 328 329 329 328
296 297 298 299 300 300 301 303 305 306 309 311 310 310 310 309 309 308 306 303 304 307 313 316 320 320 319 315 316 314 316 316 317 315 317 313 312 311 315 318 321 326 328 329 329
297 296 296 296 297 299 300 302 305 305 309 310 310 310 311 311 310 310 307 305 311 308 312 314 317 316 313 312 315 317 316 314 316 315 317 316 314 312 315 317 316 319 323 326 328
298 298 298 298 297 296 299 302 305 306 307 308 309 310 311 310 310 308 309 311 314 312 309 316 315 317 316 313 310 313 313 313 312 314 317 315 315 314 314 314 315 317 317 319 322
298 298 298 298 298 297 300 303 306 304 306 305 306 309 309 311 310 309 309 312 314 310 312 314 315 312 313 314 312 314 312 311 314 313 314 311 312 310 311 313 316 316 317 317 317
299 299 298 298 298 298 301 304 304 305 306 304 307 309 309 310 311 310 312 313 312 311 312 312 309 310 313 315 314 313 311 311 312 312 309 308 308 307 307 309 312 314 315 315 315
300 299 298 298 298 299 302 303 305 305 304 303 308 309 309 309 310 311 311 312 311 309 311 309 309 312 312 314 313 315 312 311 312 311 312 306 305 305 305 304 303 308 309 310 310
298 299 298 297 298 298 301 303 304 304 297 302 309 310 310 310 311 310 312 313 311 309 309 305 309 311 312 312 313 313 311 311 310 309 310 309 308 305 303 305 304 304 307 308 308
299 298 298 298 298 297 298 303 303 300 298 306 308 309 311 310 311 311 309 311 311 309 308 308 310 309 310 310 312 310 311 311 309 308 309 309 308 306 305 305 306 308 309 309 309
300 298 298 298 298 298 299 303 294 298 300 304 308 309 310 311 311 311 310 312 312 311 310 310 310 309 310 311 310 311 313 315 316 315 314 303 307 307 305 302 304 305 309 310 310
300 298 298 299 298 297 301 294 292 288 299 304 307 308 310 310 311 312 312 312 311 309 310 311 309 310 310 310 311 310 312 314 316 307 305 304 306 305 304 306 307 307 310 310 311
299 299 298 298 299 298 301 287 290 290 302 305 306 308 306 308 310 310 313 313 311 309 311 311 310 309 310 310 310 311 311 307 307 301 306 305 304 304 305 305 306 307 309 310 310
299 299 299 298 298 299 293 293 288 298 302 301 303 305 305 304 308 311 311 310 311 309 309 309 310 308 310 309 310 309 308 311 308 306 306 303 304 305 305 307 307 306 308 309 309
297 299 298 299 298 299 288 289 291 298 302 303 300 302 305 307 307 310 311 308 307 309 310 309 310 310 311 310 310 310 310 309 309 307 306 303 303 300 303 304 306 306 308 310 311
297 292 299 300 295 295 294 282 294 298 303 303 303 300 301 305 305 305 309 309 306 308 311 310 310 311 311 307 306 309 310 308 308 306 306 307 306 304 301 302 304 307 308 310 310
297 298 299 299 292 295 295 288 294 297 302 302 303 303 304 304 301 304 305 306 306 308 310 309 311 306 306 309 307 309 309 309 307 307 307 306 304 303 305 305 305 307 308 309 309
298 295 299 300 298 295 297 294 293 296 298 301 301 303 304 303 303 303 302 304 304 307 309 307 309 308 307 307 307 310 309 309 309 309 309 307 306 307 306 306 305 307 308 308 309
299 296 296 297 299 297 297 294 290 293 296 298 301 301 303 302 303 303 302 303 303 305 305 305 306 305 307 305 306 307 307 309 310 310 309 308 306 305 304 304 306 307 307 308 309
298 296 296 294 297 297 297 294 297 294 293 294 298 300 301 302 301 302 302 302 302 303 304 302 295 300 298 303 305 306 306 307 309 310 309 307 307 304 306 307 306 307 307 308 309
299 299 299 296 296 297 296 296 296 296 297 297 297 299 300 300 301 301 302 302 302 304 303 302 295 302 297 302 303 304 306 307 307 309 309 310 309 306 306 306 307 307 308 308 309
Wind_Speed
15 16 14 14 15 19 17 15 18 16 16 17 15 14 16 22 18 18 17 22 18 14 13 12 10 10 6 3 2 4 4 3 4 6 3 6 4 4 6 9 7 7 3 3 20
15 14 14 14 16 15 17 16 15 20 14 17 15 14 15 14 21 23 19 19 20 22 17 13 10 8 3 3 4 3 4 8 4 5 2 3 3 11 5 6 6 6 6 5 23
14 15 13 14 15 16 17 17 19 21 13 15 14 12 13 11 11 20 17 18 23 24 21 15 9 6 3 3 5 4 5 4 4 3 3 3 4 7 9 3 9 12 10 14 23
14 14 16 14 14 14 15 15 12 15 15 11 14 12 10 7 6 5 10 11 16 20 19 14 8 4 3 4 5 4 4 3 3 1 4 5 7 5 11 3 6 9 10 18 23
15 15 15 16 15 15 17 18 16 15 18 19 10 11 8 7 11 7 3 6 8 12 13 12 11 7 4 3 4 3 4 3 2 2 2 5 3 5 10 3 3 10 14 19 20
14 15 15 15 15 14 15 16 14 14 13 12 12 12 7 4 7 13 8 4 5 6 7 12 7 8 4 3 4 6 4 3 1 1 2 3 2 5 4 9 6 11 16 19 19
13 13 14 16 16 14 15 16 15 14 12 5 6 8 8 16 6 7 8 7 2 3 6 11 7 6 5 3 3 4 4 2 3 2 1 3 2 5 5 8 8 13 17 19 19
13 14 14 16 16 15 15 15 16 14 13 4 2 7 7 6 12 14 7 7 7 4 4 5 5 5 3 5 4 4 4 3 1 4 1 4 6 3 6 10 11 12 16 19 21
13 14 14 14 16 16 15 13 11 15 12 9 3 1 6 5 6 5 9 4 7 5 5 5 5 3 3 5 3 5 3 4 2 4 2 3 7 3 5 8 10 12 15 18 20
12 13 15 14 16 17 18 14 12 10 8 1 2 2 2 5 4 2 6 4 3 5 4 5 2 2 2 3 7 6 4 4 4 2 2 3 7 2 5 2 6 13 15 17 19
12 13 14 15 16 16 17 14 8 4 6 6 7 4 2 6 2 0 5 6 3 4 4 3 2 6 5 2 2 5 3 3 1 2 3 5 7 8 9 8 11 15 16 18 20
11 13 14 15 14 13 11 6 6 10 8 9 12 11 7 6 4 1 6 5 2 3 2 3 6 5 3 2 2 3 4 2 1 2 2 2 9 7 8 10 19 20 20 21 21
11 13 14 13 12 10 7 8 5 5 5 7 4 5 7 3 0 4 6 2 2 4 4 4 1 7 4 3 4 1 4 3 1 1 3 3 6 4 4 10 20 25 26 25 26
9 11 12 12 7 9 7 8 3 4 2 5 2 2 4 5 3 4 5 1 1 6 4 3 2 5 1 3 4 4 4 5 5 2 3 2 5 5 1 7 7 23 19 21 19
10 11 10 9 7 5 7 5 2 2 5 4 3 1 4 3 4 3 3 2 3 3 4 4 3 5 4 4 6 2 5 5 3 4 2 2 2 7 3 5 9 3 5 10 13
8 9 8 6 4 5 5 6 4 4 4 5 5 3 4 5 2 5 6 4 2 2 1 2 1 1 4 2 5 7 6 7 4 3 2 4 4 5 4 5 2 3 4 2 6
7 7 6 3 1 3 1 5 4 3 2 6 3 4 3 2 4 3 8 2 3 3 2 2 1 3 1 5 3 2 5 2 2 1 5 1 1 6 10 5 3 6 2 6 8
7 5 5 2 1 2 1 4 4 4 4 3 3 3 2 3 1 4 6 6 4 3 3 5 2 5 2 2 6 4 4 6 5 3 2 2 6 6 5 6 10 9 7 7 7
5 5 4 2 2 1 1 4 6 5 3 5 0 3 5 3 1 3 5 2 5 5 1 3 1 2 2 0 1 3 2 1 7 1 3 4 6 10 4 4 2 6 10 9 7
4 3 3 3 3 4 4 3 3 3 2 3 2 4 5 5 3 1 3 1 2 2 4 3 2 2 1 2 2 4 5 2 2 3 4 4 4 5 5 6 2 4 10 9 9
3 1 2 7 6 4 3 6 4 6 2 2 2 1 1 4 3 2 1 4 5 4 7 2 3 3 2 4 6 3 2 2 4 3 4 1 5 6 6 6 7 9 10 8 9
3 2 4 12 4 5 1 5 4 4 1 2 2 1 3 1 2 2 3 2 10 4 5 2 2 4 3 3 3 2 2 4 3 5 3 1 6 3 7 8 10 12 10 9 11
4 3 7 15 3 3 2 4 3 2 3 1 2 3 2 2 1 2 3 1 3 6 1 3 3 2 4 2 0 4 5 4 3 2 5 4 6 2 5 3 6 11 11 13 13
5 2 4 15 5 5 4 4 2 4 5 3 3 1 2 2 0 1 2 2 3 5 4 6 1 1 2 3 3 3 5 9 6 2 8 6 5 4 5 5 6 13 17 15 14
8 5 6 3 6 10 6 3 1 3 2 3 3 6 5 3 2 3 2 4 4 4 2 3 4 2 2 3 1 2 7 8 12 21 10 19 11 7 5 6 12 13 16 17 15
11 7 8 3 5 13 8 6 10 4 5 5 5 3 6 7 5 3 2 2 2 1 1 1 3 2 4 8 7 5 9 9 16 21 14 14 9 5 5 7 11 16 15 17 21
27 16 9 8 6 6 6 12 9 11 10 15 11 3 7 12 10 11 8 4 4 3 3 3 3 1 5 3 1 5 13 10 8 14 15 15 24 6 8 10 15 16 22 27 30
Wind_Direction
343 343 340 322 332 330 309 299 296 303 252 252 248 251 255 252 254 265 253 230 257 271 269 281 293 286 280 248 195 137 69 176 217 153 239 163 153 164 175 149 172 200 227 233 178
341 341 342 327 319 333 334 316 321 279 269 244 246 250 261 275 250 263 254 254 243 266 269 280 283 286 244 200 182 107 132 214 192 177 203 195 187 165 164 159 206 209 226 206 176
339 338 335 330 323 320 333 339 332 309 307 243 243 240 252 265 276 263 263 238 243 254 257 264 267 267 237 201 183 157 183 198 213 176 209 214 194 173 141 238 213 210 202 179 178
337 338 332 333 328 327 340 331 336 307 321 290 238 230 237 227 210 202 249 235 233 244 248 251 235 212 204 199 184 145 220 187 164 209 175 177 160 181 185 200 235 223 208 178 186
332 337 335 330 326 330 325 335 334 327 312 312 270 211 223 221 235 283 277 259 242 238 241 230 217 191 188 205 152 163 189 195 181 132 113 154 175 183 209 216 240 201 192 189 193
325 335 334 333 330 324 321 330 323 323 311 281 289 206 210 237 254 258 256 262 283 243 236 217 228 215 197 205 186 192 155 158 217 212 153 173 190 180 202 212 215 199 196 198 201
323 332 336 335 337 325 320 323 325 331 314 255 270 232 228 239 260 254 256 229 296 261 247 217 217 188 186 157 163 131 123 58 218 227 217 150 270 227 180 193 197 199 202 204 211
326 329 334 335 336 336 321 318 326 329 329 327 213 290 243 278 262 259 264 233 228 215 227 204 200 204 221 136 50 100 58 132 261 169 210 137 253 243 193 196 199 202 209 213 216
323 325 331 333 334 336 330 320 333 317 332 285 159 73 286 305 291 271 252 238 221 226 200 190 182 193 151 115 56 7 170 194 284 209 134 137 242 241 201 212 217 217 221 224 227
317 323 329 334 331 334 335 326 316 311 329 31 95 264 314 330 318 271 216 197 194 186 173 186 184 89 24 144 194 178 192 216 206 205 150 170 250 266 199 187 230 235 232 233 234
313 316 324 336 337 336 339 352 1 325 352 298 310 288 41 347 290 137 191 167 166 160 170 154 153 201 221 221 66 137 137 150 225 356 165 214 264 237 231 255 250 246 248 248 243
316 318 323 332 338 341 352 27 37 344 311 304 278 259 289 349 3 0 175 157 177 161 154 96 239 205 166 187 81 120 126 174 321 20 142 55 271 260 257 246 245 247 249 249 250
310 313 322 334 336 349 18 4 353 4 305 298 284 263 256 245 137 6 183 136 162 152 201 173 282 162 145 152 138 113 152 170 211 88 68 336 287 268 254 259 255 251 253 255 254
308 315 326 336 339 354 16 22 46 13 337 297 355 313 213 237 252 189 191 210 233 194 159 261 352 132 141 185 144 166 186 128 126 96 233 5 271 293 301 284 270 259 256 259 260
295 302 322 335 324 330 343 1 323 339 23 272 285 277 197 215 126 192 152 230 200 181 123 241 183 157 179 203 161 196 131 115 88 78 11 341 42 275 353 288 266 316 285 259 247
298 301 310 326 323 319 320 339 343 42 269 342 322 244 174 214 154 122 195 300 332 134 102 202 309 259 215 76 149 147 91 59 52 57 335 216 171 264 238 220 355 13 13 92 150
286 289 299 315 355 350 330 326 36 129 316 332 324 343 290 193 181 189 151 223 177 128 190 31 315 303 10 85 51 167 127 43 308 208 235 7 254 266 271 236 263 312 250 134 133
272 277 283 264 216 333 354 45 77 240 259 303 314 321 264 11 140 169 163 155 255 318 141 151 228 186 178 198 187 173 202 152 195 209 268 341 236 240 238 294 290 253 189 174 163
249 256 272 231 207 178 359 54 206 213 299 345 346 3 355 6 333 343 192 185 166 189 74 148 209 348 15 61 155 197 209 138 104 96 34 231 292 300 240 245 303 201 179 182 184
239 246 242 197 173 150 75 255 245 262 315 4 76 11 5 346 345 177 183 227 135 104 56 328 175 10 341 137 38 160 173 114 17 131 239 266 272 243 285 268 168 195 206 193 189
198 191 199 173 156 117 146 231 274 276 277 351 234 56 341 346 355 315 336 34 35 313 217 174 133 332 129 216 184 151 195 107 124 148 207 273 260 220 246 238 211 217 208 199 178
183 52 172 163 68 107 180 198 319 290 175 277 280 273 200 188 325 24 335 355 8 317 179 166 169 181 179 338 316 311 224 156 153 217 243 226 265 238 246 266 229 216 206 188 169
167 137 168 173 144 193 150 293 266 286 271 269 279 214 348 258 39 359 348 340 29 23 334 174 194 92 11 5 238 222 198 199 123 104 203 158 259 309 293 292 203 199 184 170 164
176 118 167 199 220 145 207 256 264 263 261 254 280 290 25 314 159 290 259 254 219 172 178 146 351 275 204 113 340 228 222 199 184 157 239 235 274 260 240 231 213 194 184 181 182
207 209 187 188 196 190 180 157 195 272 252 259 258 220 182 219 265 245 294 304 255 227 111 138 208 162 204 263 251 274 300 252 207 226 212 251 242 239 259 238 236 217 204 202 201
192 174 190 208 193 179 190 214 209 228 159 257 214 228 206 235 187 168 197 271 281 54 216 299 285 12 284 237 204 226 256 247 237 240 235 238 273 188 257 236 231 229 225 227 215
212 214 208 190 162 164 205 204 205 195 237 224 206 189 218 244 253 256 244 247 246 198 185 152 114 50 279 304 273 273 231 223 234 242 229 240 245 163 232 242 246 235 226 230 228